LRBO Weather Reports


time (UTC)temp
F
wind
direction
speed
knots
gust
knots
rain 1hr
in
rain 24hr
in
rain mn
in
humidity
%
barometer
mb
20260507051854 50 160 6.1 0.0 0.00 0.00 0.00 88 1017.0
20260507050353 0 0.0 0.0 0.00 0.00 0.00
20260507044847 45 180 4.3 0.0 0.00 0.00 0.00 100 1016.0
20260507043353 45 180 4.3 0.0 0.00 0.00 0.00 100 1016.0
20260507041854 45 180 4.3 0.0 0.00 0.00 0.00 100 1016.0
20260507040353 45 180 4.3 0.0 0.00 0.00 0.00 100 1016.0
20260507034850 41 190 4.3 0.0 0.00 0.00 0.00 93 1016.0
20260507033353 41 190 4.3 0.0 0.00 0.00 0.00 93 1016.0
20260507031850 41 190 4.3 0.0 0.00 0.00 0.00 93 1016.0
20260507030353 41 190 4.3 0.0 0.00 0.00 0.00 93 1016.0
20260507024850 45 2.6 0.0 0.00 0.00 0.00 93 1017.0
20260507023353 45 2.6 0.0 0.00 0.00 0.00 93 1017.0
20260507021854 0 0.0 0.0 0.00 0.00 0.00
20260507020353 0 0.0 0.0 0.00 0.00 0.00
20260507014853 46 2.6 0.0 0.00 0.00 0.00 93 1017.0
20260507013353 46 2.6 0.0 0.00 0.00 0.00 93 1017.0
20260507011853 46 2.6 0.0 0.00 0.00 0.00 93 1017.0
20260507010354 46 2.6 0.0 0.00 0.00 0.00 93 1017.0
20260507004853 46 2.6 0.0 0.00 0.00 0.00 93 1017.0
20260507003354 48 2.6 0.0 0.00 0.00 0.00 87 1017.0
20260507001853 48 2.6 0.0 0.00 0.00 0.00 87 1017.0
20260507000353 48 2.6 0.0 0.00 0.00 0.00 87 1017.0
20260506234853 50 2.6 0.0 0.00 0.00 0.00 82 1016.0
20260506233353 50 2.6 0.0 0.00 0.00 0.00 82 1016.0
20260506231851 50 2.6 0.0 0.00 0.00 0.00 82 1016.0
20260506230353 50 2.6 0.0 0.00 0.00 0.00 82 1016.0
20260506224850 52 2.6 0.0 0.00 0.00 0.00 82 1016.0
20260506223353 52 2.6 0.0 0.00 0.00 0.00 82 1016.0
20260506221853 52 2.6 0.0 0.00 0.00 0.00 82 1016.0
20260506220353 0 0.0 0.0 0.00 0.00 0.00
20260506214906 54 2.6 0.0 0.00 0.00 0.00 77 1016.0
20260506213353 54 2.6 0.0 0.00 0.00 0.00 77 1016.0
20260506211847 54 2.6 0.0 0.00 0.00 0.00 77 1016.0
20260506210353 54 2.6 0.0 0.00 0.00 0.00 77 1016.0
20260506204854 52 260 4.3 0.0 0.00 0.00 0.00 77 1016.0
20260506203353 52 260 4.3 0.0 0.00 0.00 0.00 77 1016.0
20260506201847 52 260 4.3 0.0 0.00 0.00 0.00 77 1016.0
20260506200353 52 260 4.3 0.0 0.00 0.00 0.00 77 1016.0
20260506194910 59 160 6.1 0.0 0.00 0.00 0.00 63 1016.0
20260506193417 59 160 6.1 0.0 0.00 0.00 0.00 63 1016.0
20260506191854 59 160 6.1 0.0 0.00 0.00 0.00 63 1016.0
20260506190354 59 160 6.1 0.0 0.00 0.00 0.00 63 1016.0
20260506184856 63 150 7.8 0.0 0.00 0.00 0.00 56 1015.0
20260506183353 63 150 7.8 0.0 0.00 0.00 0.00 56 1015.0
20260506181854 63 150 7.8 0.0 0.00 0.00 0.00 56 1015.0
20260506180354 0 0.0 0.0 0.00 0.00 0.00
20260506174854 68 150 9.6 0.0 0.00 0.00 0.00 46 1014.0
20260506173353 68 150 9.6 0.0 0.00 0.00 0.00 46 1014.0
20260506171854 68 150 9.6 0.0 0.00 0.00 0.00 46 1014.0
20260506170353 68 150 9.6 0.0 0.00 0.00 0.00 46 1014.0
20260506164853 72 170 7.8 0.0 0.00 0.00 0.00 41 1014.0
20260506163353 72 170 7.8 0.0 0.00 0.00 0.00 41 1014.0
20260506161854 72 170 7.8 0.0 0.00 0.00 0.00 41 1014.0
20260506160353 72 170 7.8 0.0 0.00 0.00 0.00 41 1014.0
20260506154854 72 170 12.2 0.0 0.00 0.00 0.00 38 1015.0
20260506153353 72 170 12.2 0.0 0.00 0.00 0.00 38 1015.0
20260506151853 72 170 12.2 0.0 0.00 0.00 0.00 38 1015.0
20260506150359 72 170 12.2 0.0 0.00 0.00 0.00 38 1015.0
20260506144853 73 200 9.6 0.0 0.00 0.00 0.00 38 1015.0
20260506143405 73 200 9.6 0.0 0.00 0.00 0.00 38 1015.0
20260506141853 73 200 9.6 0.0 0.00 0.00 0.00 38 1015.0
20260506140515 0 0.0 0.0 0.00 0.00 0.00
20260506134918 73 150 12.2 0.0 0.00 0.00 0.00 38 1015.0
20260506133353 73 150 12.2 0.0 0.00 0.00 0.00 38 1015.0
20260506131850 73 150 12.2 0.0 0.00 0.00 0.00 38 1015.0
20260506130402 73 150 12.2 0.0 0.00 0.00 0.00 38 1015.0
20260506124854 73 170 9.6 0.0 0.00 0.00 0.00 38 1015.0
20260506123353 73 170 9.6 0.0 0.00 0.00 0.00 38 1015.0
20260506121854 73 170 9.6 0.0 0.00 0.00 0.00 38 1015.0
20260506120353 73 170 9.6 0.0 0.00 0.00 0.00 38 1015.0
20260506114853 73 170 9.6 0.0 0.00 0.00 0.00 41 1015.0
20260506113354 73 170 9.6 0.0 0.00 0.00 0.00 41 1015.0
20260506111853 73 170 9.6 0.0 0.00 0.00 0.00 41 1015.0
20260506110353 73 170 9.6 0.0 0.00 0.00 0.00 41 1015.0
20260506104853 72 190 9.6 0.0 0.00 0.00 0.00 38 1016.0
20260506103354 72 190 9.6 0.0 0.00 0.00 0.00 38 1016.0
20260506101854 72 190 9.6 0.0 0.00 0.00 0.00 38 1016.0
20260506100354 72 190 9.6 0.0 0.00 0.00 0.00 38 1016.0
20260506094854 70 170 7.8 0.0 0.00 0.00 0.00 43 1016.0
20260506093353 70 170 7.8 0.0 0.00 0.00 0.00 43 1016.0
20260506091853 70 170 7.8 0.0 0.00 0.00 0.00 43 1016.0
20260506090353 70 170 7.8 0.0 0.00 0.00 0.00 43 1016.0
20260506084854 68 190 7.8 0.0 0.00 0.00 0.00 40 1016.0
20260506083353 68 190 7.8 0.0 0.00 0.00 0.00 40 1016.0
20260506081850 68 190 7.8 0.0 0.00 0.00 0.00 40 1016.0
20260506080354 68 190 7.8 0.0 0.00 0.00 0.00 40 1016.0
20260506073354 63 210 7.8 0.0 0.00 0.00 0.00 52 1016.0
20260506071853 63 210 7.8 0.0 0.00 0.00 0.00 52 1016.0
20260506070353 63 210 7.8 0.0 0.00 0.00 0.00 52 1016.0
20260506061854 61 210 7.8 0.0 0.00 0.00 0.00 52 1015.0
20260506060355 61 210 7.8 0.0 0.00 0.00 0.00 52 1015.0